Regional Weather Roundup
Issued by NWS

Home | Current Version | Previous Version | Text Only | Print | Product List | Glossary Off
Versions: 1 2 3 4 5 6 7 8 9 10 11 12 13 14 15 16 17 18 19 20 21 22 23 24 25 26 27 28 29 30 31 32 33 34 35 36 37 38 39 40 41 42 43 44 45 46 47 48 49 50

000
ASUS43 KBIS 240059
RWRND

NORTH DAKOTA REGIONAL WEATHER ROUNDUP
NATIONAL WEATHER SERVICE BISMARCK ND
800 PM CDT WED APR 23 2014

NOTE: "FAIR" INDICATES FEW OR NO CLOUDS BELOW 12,000 FEET WITH NO
SIGNIFICANT WEATHER AND/OR OBSTRUCTIONS TO VISIBILITY.


NDZ001>003-009>011-017-240200-
NORTHWEST NORTH DAKOTA

CITY           SKY/WX    TMP DP  RH WIND       PRES   REMARKS
WILLISTON      CLOUDY    55  40  56 CALM      29.58R
MINOT          CLOUDY    46  43  89 S6        29.61R
MINOT AFB      CLOUDY    45  43  93 SE14      29.60S
$$

NDZ018>021-031>035-040>046-240200-
SOUTHWEST NORTH DAKOTA

CITY           SKY/WX    TMP DP  RH WIND       PRES   REMARKS
BISMARCK       CLOUDY    51  40  65 NW12      29.66R
GARRISON         N/A     46  42  86 NW13      29.62R
HETTINGER ARPT PTCLDY    52  31  44 W15G22    29.68R
$$

NDZ004>008-012>016-024-026-027-054-240200-
NORTHEAST NORTH DAKOTA

CITY           SKY/WX    TMP DP  RH WIND       PRES   REMARKS
GRAND FORKS    RAIN      41  38  89 SE24      29.83F FOG
GRND FRKS AFB  LGT RAIN  41  39  93 SE18G26   29.82F FOG
DEVILS LAKE    CLOUDY    37  34  87 SE23G31   29.72F
$$

NDZ022-023-025-028>030-036>039-047>053-240200-
SOUTHEAST NORTH DAKOTA

CITY           SKY/WX    TMP DP  RH WIND       PRES   REMARKS
FARGO          LGT RAIN  41  37  86 SE22      29.79F
$$




USA.gov is the U.S. government's official web portal to all federal, state and local government web resources and services.